Home > Weather > Pereira > Past weeks

Flag for Colombia Past Weather in Pereira, Colombia — Yesterday and Last 2 Weeks

Now
72 °F

Scattered clouds.


Feels Like: 72 °F
Forecast: 59 / 83 °F
Wind: 2 mph from North

Location: Pereira / Matecana

Current Time: Jul 23, 2016 at 8:23:06 AM

Latest Report: Jul 23, 2016 at 8:00 AM


Visibility: N/A

Pressure: 30.11 "Hg (25.52 "Hg at 1427m altitude)

Humidity: 78%

Dew Point: 64 °F

Location of PereiraLocation

Past Weather in Pereira — Graph

°F

Pereira Temperature Yesterday

Maximum temperature yesterday: 81 °F (at 1:00 PM)
Minimum temperature yesterday: 64 °F (at 5:00 AM)
Average temperature yesterday: 72 °F

High & Low Weather Summary for the Past Weeks

 TemperatureHumidityPressure
High86 °F (Jul 9, 2:00 PM)100% (Jul 14, 5:00 AM)30.16 "Hg (Jul 14, 5:00 AM)
Low63 °F (Jul 16, 5:00 AM)43% (Jul 9, 2:00 PM)29.95 "Hg (Jul 9, 4:00 PM)
Average72 °F76%30.06 "Hg
* Reported Jul 8 7:00 AM — Jul 23 7:00 AM, Pereira, Weather by CustomWeather, © 2016

Note: Actual official high and low records may vary slightly from our data, if they occured in-between our weather recording intervals... More about our weather records

Advertising

Pereira Weather History for the Previous 24 Hours

Scroll right to see more
 ConditionsComfort  
Time TempWeatherWind HumidityBarometerVisibility
7:00 AM
Sat, Jul 23
66 °FScattered clouds.3 mph88%30.10 "HgN/A
6:00 AM66 °FScattered clouds.2 mph88%30.09 "HgN/A
5:00 AM66 °FPassing clouds.2 mph88%30.08 "HgN/A
1:00 AM68 °FPassing clouds.2 mph83%30.08 "HgN/A
12:00 AM70 °FPassing clouds.2 mph78%30.09 "HgN/A
11:00 PM
Fri, Jul 22
70 °FPassing clouds.3 mph78%30.11 "HgN/A
10:00 PM70 °FPassing clouds.6 mph78%30.09 "HgN/A
9:00 PM70 °FPassing clouds.9 mph83%30.06 "HgN/A
8:00 PM72 °FThunderstorms. Passing clouds.2 mph73%30.04 "HgN/A
7:00 PM73 °FPassing clouds.2 mph74%30.03 "HgN/A
6:00 PM77 °FScattered clouds.6 mph61%30.00 "HgN/A
5:00 PM79 °FScattered clouds.6 mph54%29.99 "HgN/A
4:00 PM79 °FScattered clouds.6 mph58%29.98 "HgN/A
3:00 PM75 °FScattered clouds.8 mph69%30.02 "HgN/A
2:00 PM79 °FScattered showers. Scattered clouds.5 mph58%30.04 "HgN/A
1:00 PM81 °FScattered clouds.5 mph54%30.07 "HgN/A
12:00 PM79 °FScattered clouds.5 mph61%30.09 "HgN/A
11:00 AM75 °FScattered clouds.5 mph69%30.12 "HgN/A
10:00 AM72 °FScattered clouds.2 mph73%30.15 "HgN/A
9:00 AM70 °FScattered clouds.2 mph83%30.16 "HgN/A
8:00 AM66 °FScattered clouds.2 mph88%30.14 "HgN/A
Weather by CustomWeather, © 2016

See weather overviewHow to use our weather pages